EDT,Max TemperatureF,Mean TemperatureF,Min TemperatureF,Max Dew PointF,MeanDew PointF,Min DewpointF,Max Humidity, Mean Humidity, Min Humidity, Max Sea Level PressureIn, Mean Sea Level PressureIn, Min Sea Level PressureIn, Max VisibilityMiles, Mean VisibilityMiles, Min VisibilityMiles, Max Wind SpeedMPH, Mean Wind SpeedMPH, Max Gust SpeedMPH,PrecipitationIn, CloudCover, Events, WindDirDegrees
2013-3-1,30,26,23,27,22,19,93,85,80,29.93,29.86,29.75,10,9,3,9,5,17,0.00,8,,307
2013-3-2,23,22,21,19,18,16,93,85,80,29.90,29.88,29.86,10,10,8,10,6,,0.00,8,,311
2013-3-3,24,22,19,19,17,14,93,81,74,29.93,29.88,29.85,10,7,2,13,8,22,0.00,8,,291
2013-3-4,30,24,17,18,15,12,86,73,51,30.03,30.00,29.93,10,9,3,14,7,20,0.00,5,,289
2013-3-5,39,26,12,21,18,9,93,69,45,30.04,29.91,29.71,10,10,10,15,5,22,0.00,2,,76
2013-3-6,37,34,32,27,24,21,80,65,52,30.09,29.92,29.71,10,10,10,14,8,20,0.00,7,,41
2013-3-7,37,34,30,28,27,25,93,82,65,30.25,30.17,30.08,10,9,2,12,4,18,0.00,8,,308
2013-3-8,39,32,26,27,23,19,86,72,49,30.38,30.32,30.25,10,10,10,13,7,20,0.00,5,,331
2013-3-9,51,36,21,28,24,19,100,64,35,30.37,30.28,30.16,10,8,2,10,3,,0.00,0,,124
2013-3-10,64,53,42,36,27,19,49,37,30,30.16,30.07,29.99,10,10,10,17,11,22,0.00,2,,151
2013-3-11,59,52,44,45,31,27,93,47,34,29.99,29.84,29.68,10,10,10,21,12,29,0.26,5,,145
2013-3-12,44,38,32,43,31,23,93,79,69,29.94,29.84,29.73,10,10,7,15,9,22,0.20,8,,241
2013-3-13,32,28,24,27,21,14,93,76,55,30.03,29.92,29.86,10,8,0,21,9,34,0.00,7,,251
2013-3-14,30,26,21,19,14,10,80,63,54,30.13,30.08,30.02,10,10,1,20,10,28,0.00,5,,284
2013-3-15,39,30,21,30,24,14,93,74,61,30.05,29.89,29.80,10,8,1,16,8,23,0.04,6,,252
2013-3-16,32,28,24,30,27,19,93,90,80,29.95,29.77,29.65,10,5,0,9,4,,0.23,8,,41
2013-3-17,30,26,21,23,18,12,93,72,51,30.19,30.10,29.95,10,10,4,8,4,,0.00,6,,344
2013-3-18,33,27,21,30,23,16,93,83,69,30.17,29.90,29.66,10,8,1,24,10,36,0.10,6,,107
2013-3-19,35,30,24,34,23,16,93,76,59,29.87,29.76,29.65,10,8,0,22,8,31,0.05,8,,245
2013-3-20,30,26,21,21,16,12,80,67,55,29.88,29.84,29.81,10,9,1,16,10,29,0.00,7,,267
2013-3-21,24,19,14,21,14,7,86,75,59,29.82,29.78,29.77,10,7,1,17,9,22,0.00,7,,254
2013-3-22,26,24,21,21,19,18,86,80,69,29.97,29.88,29.79,10,6,0,23,10,29,0.02,8,,268
2013-3-23,33,26,19,21,19,16,93,72,52,30.02,29.98,29.93,10,10,10,10,5,,0.02,6,,281
2013-3-24,37,27,17,19,18,16,93,66,45,29.99,29.78,29.54,10,10,10,16,5,21,0.01,3,,57
2013-3-25,35,32,30,30,28,19,93,84,52,29.72,29.54,29.46,10,4,1,16,9,22,0.17,8,,65
2013-3-26,39,34,28,30,27,25,93,80,56,30.01,29.88,29.73,10,10,4,16,6,21,0.01,7,,286
2013-3-27,37,34,30,28,27,23,93,78,60,30.11,30.06,30.00,10,9,3,15,9,22,0.00,8,,272
2013-3-28,35,32,30,30,28,27,93,83,70,30.23,30.15,30.07,10,7,1,10,7,16,0.02,8,,283
2013-3-29,44,38,33,28,25,21,81,61,39,30.22,30.19,30.15,10,10,10,15,5,18,0.00,6,,270
2013-3-30,51,38,24,25,21,18,80,51,32,30.22,30.14,30.02,10,10,10,9,3,16,0.00,0,,205
2013-3-31,46,42,37,43,31,19,93,66,42,30.01,29.80,29.68,10,10,7,18,8,22,0.10,4,,176